Time,TemperatureF,DewpointF,PressureIn,WindDirection,WindDirectionDegrees,WindSpeedMPH,WindSpeedGustMPH,Humidity,HourlyPrecipIn,Conditions,Clouds,dailyrainin,SoftwareType,DateUTC
2013-03-12 00:02:00,69.0,60.0,29.80,South,181,4.0,4.0,73,0.00,,,0.01,,2013-03-12 04:02:00,
2013-03-12 00:13:00,69.0,60.0,29.80,South,181,4.0,4.0,73,0.00,,,0.01,,2013-03-12 04:13:00,
2013-03-12 00:22:00,69.0,60.0,29.83,SSE,168,3.0,3.0,74,0.00,,,0.01,,2013-03-12 04:22:00,
2013-03-12 00:32:00,69.0,60.0,29.83,SSE,155,0.0,2.0,74,0.00,,,0.01,,2013-03-12 04:32:00,
2013-03-12 00:43:00,69.0,60.0,29.83,SSE,155,0.0,2.0,74,0.00,,,0.01,,2013-03-12 04:43:00,
2013-03-12 00:52:00,69.0,60.0,29.83,South,174,4.0,4.0,74,0.00,,,0.01,,2013-03-12 04:52:00,
2013-03-12 01:02:00,69.0,61.0,29.82,South,173,3.0,3.0,75,0.00,,,0.01,,2013-03-12 05:02:00,
2013-03-12 01:12:00,69.0,61.0,29.82,South,173,3.0,3.0,75,0.00,,,0.01,,2013-03-12 05:12:00,
2013-03-12 01:22:00,69.0,61.0,29.81,South,178,0.0,2.0,75,0.00,,,0.01,,2013-03-12 05:22:00,
2013-03-12 01:32:00,68.0,60.0,29.80,South,175,3.0,3.0,75,0.00,,,0.01,,2013-03-12 05:32:00,
2013-03-12 01:42:00,68.0,60.0,29.80,South,175,3.0,3.0,75,0.00,,,0.01,,2013-03-12 05:42:00,
2013-03-12 01:52:00,80.0,71.0,29.79,South,187,5.0,5.0,75,0.00,,,0.01,,2013-03-12 05:52:00,
2013-03-12 02:02:00,79.0,71.0,29.80,North,360,0.0,0.0,76,0.00,,,0.01,,2013-03-12 06:02:00,
2013-03-12 02:12:00,79.0,71.0,29.80,North,360,0.0,0.0,76,0.00,,,0.01,,2013-03-12 06:12:00,
2013-03-12 02:22:00,79.0,72.0,29.82,South,182,1.0,2.0,78,0.00,,,0.01,,2013-03-12 06:22:00,
2013-03-12 02:32:00,78.0,71.0,29.80,SSW,197,1.0,1.0,80,0.00,,,0.01,,2013-03-12 06:32:00,
2013-03-12 02:42:00,78.0,71.0,29.80,SSW,197,1.0,1.0,80,0.00,,,0.01,,2013-03-12 06:42:00,
2013-03-12 02:52:00,78.0,72.0,29.80,SSW,202,0.0,0.0,81,0.00,,,0.01,,2013-03-12 06:52:00,
2013-03-12 03:02:00,78.0,72.0,29.79,South,186,1.0,1.0,81,0.00,,,0.01,,2013-03-12 07:02:00,
2013-03-12 03:12:00,78.0,72.0,29.79,South,186,1.0,1.0,81,0.00,,,0.01,,2013-03-12 07:12:00,
2013-03-12 03:22:00,78.0,72.0,29.78,South,182,1.0,1.0,82,0.00,,,0.01,,2013-03-12 07:22:00,
2013-03-12 03:32:00,78.0,72.0,29.78,South,184,1.0,2.0,83,0.00,,,0.00,,2013-03-12 07:32:00,
2013-03-12 03:42:00,78.0,72.0,29.78,South,184,1.0,2.0,83,0.00,,,0.00,,2013-03-12 07:42:00,
2013-03-12 03:52:00,78.0,72.0,29.77,South,184,3.0,3.0,83,0.00,,,0.00,,2013-03-12 07:52:00,
2013-03-12 04:02:00,78.0,72.0,29.77,South,182,1.0,3.0,83,0.00,,,0.00,,2013-03-12 08:02:00,
2013-03-12 04:13:00,78.0,72.0,29.77,South,182,1.0,3.0,83,0.00,,,0.00,,2013-03-12 08:13:00,
2013-03-12 04:22:00,78.0,73.0,29.77,SSE,163,0.0,0.0,84,0.00,,,0.00,,2013-03-12 08:22:00,
2013-03-12 04:33:00,67.0,62.0,29.75,South,183,2.0,2.0,85,0.00,,,0.00,,2013-03-12 08:33:00,
2013-03-12 04:42:00,67.0,62.0,29.75,South,183,2.0,2.0,85,0.00,,,0.00,,2013-03-12 08:42:00,
2013-03-12 04:52:00,67.0,63.0,29.76,South,181,3.0,4.0,86,0.00,,,0.00,,2013-03-12 08:52:00,
2013-03-12 05:03:00,66.0,62.0,29.75,South,179,1.0,2.0,88,0.00,,,0.00,,2013-03-12 09:03:00,
2013-03-12 05:12:00,66.0,62.0,29.75,South,179,1.0,2.0,88,0.00,,,0.00,,2013-03-12 09:12:00,
2013-03-12 05:22:00,66.0,63.0,29.75,South,179,2.0,3.0,89,0.00,,,0.00,,2013-03-12 09:22:00,
2013-03-12 05:32:00,66.0,63.0,29.75,South,181,2.0,2.0,89,0.00,,,0.00,,2013-03-12 09:32:00,
2013-03-12 05:42:00,66.0,63.0,29.75,South,181,2.0,2.0,89,0.00,,,0.00,,2013-03-12 09:42:00,
2013-03-12 05:52:00,66.0,63.0,29.76,South,185,3.0,3.0,90,0.00,,,0.00,,2013-03-12 09:52:00,
2013-03-12 06:02:00,66.0,63.0,29.76,SSE,167,5.0,7.0,91,0.00,,,0.00,,2013-03-12 10:02:00,
2013-03-12 06:12:00,66.0,63.0,29.76,SSE,167,5.0,7.0,91,0.00,,,0.00,,2013-03-12 10:12:00,
2013-03-12 06:22:00,66.0,64.0,29.76,South,176,5.0,9.0,92,0.00,,,0.00,,2013-03-12 10:22:00,
2013-03-12 06:32:00,66.0,64.0,29.77,South,183,1.0,4.0,92,0.00,,,0.00,,2013-03-12 10:32:00,
2013-03-12 06:42:00,66.0,64.0,29.77,South,183,1.0,4.0,92,0.00,,,0.00,,2013-03-12 10:42:00,
2013-03-12 06:53:00,66.0,64.0,29.77,South,179,2.0,3.0,92,0.00,,,0.00,,2013-03-12 10:53:00,
2013-03-12 07:02:00,66.0,64.0,29.77,North,360,0.0,0.0,93,0.00,,,0.00,,2013-03-12 11:02:00,
2013-03-12 07:12:00,66.0,64.0,29.77,North,360,0.0,0.0,93,0.00,,,0.00,,2013-03-12 11:12:00,
2013-03-12 07:22:00,66.0,64.0,29.78,North,360,0.0,1.0,93,0.01,,,0.01,,2013-03-12 11:22:00,
2013-03-12 07:32:00,66.0,64.0,29.78,South,179,2.0,2.0,94,0.01,,,0.01,,2013-03-12 11:32:00,
2013-03-12 07:42:00,66.0,64.0,29.78,South,179,2.0,2.0,94,0.01,,,0.01,,2013-03-12 11:42:00,
2013-03-12 07:52:00,67.0,66.0,29.77,South,175,4.0,4.0,95,0.01,,,0.01,,2013-03-12 11:52:00,
2013-03-12 08:02:00,67.0,66.0,29.78,South,173,2.0,6.0,95,0.01,,,0.01,,2013-03-12 12:02:00,
2013-03-12 08:12:00,67.0,66.0,29.78,South,173,2.0,6.0,95,0.01,,,0.01,,2013-03-12 12:12:00,
2013-03-12 08:22:00,67.0,66.0,29.78,SSW,193,4.0,9.0,95,0.00,,,0.01,,2013-03-12 12:22:00,
2013-03-12 08:32:00,67.0,66.0,29.78,South,183,4.0,6.0,96,0.00,,,0.01,,2013-03-12 12:32:00,
2013-03-12 08:42:00,67.0,66.0,29.78,South,183,4.0,6.0,96,0.00,,,0.01,,2013-03-12 12:42:00,
2013-03-12 08:52:00,67.0,66.0,29.78,South,176,4.0,4.0,96,0.00,,,0.01,,2013-03-12 12:52:00,
2013-03-12 09:02:00,67.0,66.0,29.79,South,179,5.0,5.0,96,0.00,,,0.01,,2013-03-12 13:02:00,
2013-03-12 09:12:00,67.0,66.0,29.79,South,179,5.0,5.0,96,0.00,,,0.01,,2013-03-12 13:12:00,
2013-03-12 09:22:00,67.0,66.0,29.80,South,174,5.0,5.0,96,0.00,,,0.01,,2013-03-12 13:22:00,
2013-03-12 09:32:00,68.0,67.0,29.80,South,172,7.0,7.0,96,0.00,,,0.01,,2013-03-12 13:32:00,
2013-03-12 09:42:00,68.0,67.0,29.80,South,172,7.0,7.0,96,0.00,,,0.01,,2013-03-12 13:42:00,
2013-03-12 09:52:00,68.0,67.0,29.80,South,178,8.0,9.0,96,0.00,,,0.01,,2013-03-12 13:52:00,
2013-03-12 10:02:00,68.0,67.0,29.80,South,179,4.0,6.0,96,0.00,,,0.01,,2013-03-12 14:02:00,
2013-03-12 10:12:00,68.0,67.0,29.80,South,179,4.0,6.0,96,0.00,,,0.01,,2013-03-12 14:12:00,
2013-03-12 10:22:00,68.0,67.0,29.81,South,176,11.0,11.0,96,0.00,,,0.01,,2013-03-12 14:22:00,
2013-03-12 10:33:00,66.0,64.0,29.82,WNW,289,0.0,0.0,93,0.00,,,0.01,,2013-03-12 14:33:00,
2013-03-12 10:42:00,66.0,64.0,29.82,WNW,289,0.0,0.0,93,0.00,,,0.01,,2013-03-12 14:42:00,
2013-03-12 10:53:00,63.0,61.0,29.83,North,360,0.0,1.0,94,0.01,,,0.02,,2013-03-12 14:53:00,
2013-03-12 11:02:00,63.0,62.0,29.85,SSW,200,0.0,0.0,96,0.01,,,0.02,,2013-03-12 15:02:00,
2013-03-12 11:13:00,63.0,62.0,29.85,SSW,200,0.0,0.0,96,0.01,,,0.02,,2013-03-12 15:13:00,
2013-03-12 11:22:00,62.0,61.0,29.86,NNE,23,0.0,0.0,96,0.01,,,0.02,,2013-03-12 15:22:00,
2013-03-12 11:32:00,62.0,61.0,29.86,North,360,0.0,0.0,96,0.01,,,0.02,,2013-03-12 15:32:00,
2013-03-12 11:42:00,62.0,61.0,29.86,North,360,0.0,0.0,96,0.01,,,0.02,,2013-03-12 15:42:00,
2013-03-12 12:02:00,62.0,61.0,29.87,North,360,0.0,1.0,97,0.00,,,0.02,,2013-03-12 16:02:00,
2013-03-12 12:12:00,62.0,61.0,29.87,North,360,0.0,1.0,97,0.00,,,0.02,,2013-03-12 16:12:00,
2013-03-12 12:22:00,62.0,61.0,29.87,North,360,0.0,0.0,98,0.00,,,0.02,,2013-03-12 16:22:00,
2013-03-12 12:33:00,63.0,62.0,29.88,East,95,0.0,0.0,97,0.00,,,0.02,,2013-03-12 16:33:00,
2013-03-12 12:43:00,63.0,62.0,29.88,East,95,0.0,0.0,97,0.00,,,0.02,,2013-03-12 16:43:00,
2013-03-12 12:53:00,63.0,62.0,29.88,NE,36,1.0,1.0,96,0.00,,,0.02,,2013-03-12 16:53:00,
2013-03-12 13:03:00,63.0,62.0,29.87,WNW,284,0.0,0.0,96,0.00,,,0.02,,2013-03-12 17:03:00,
2013-03-12 13:13:00,63.0,62.0,29.87,WNW,284,0.0,0.0,96,0.00,,,0.02,,2013-03-12 17:13:00,
2013-03-12 13:22:00,63.0,62.0,29.88,North,360,0.0,0.0,96,0.00,,,0.02,,2013-03-12 17:22:00,
2013-03-12 13:34:00,62.0,61.0,29.88,West,264,1.0,1.0,95,0.00,,,0.02,,2013-03-12 17:34:00,
2013-03-12 13:43:00,62.0,61.0,29.88,West,264,1.0,1.0,95,0.00,,,0.02,,2013-03-12 17:43:00,
2013-03-12 13:53:00,62.0,61.0,29.87,North,360,0.0,1.0,95,0.00,,,0.02,,2013-03-12 17:53:00,
2013-03-12 14:03:00,62.0,60.0,29.86,North,360,0.0,1.0,94,0.00,,,0.02,,2013-03-12 18:03:00,
2013-03-12 14:13:00,62.0,60.0,29.86,North,351,0.0,0.0,92,0.00,,,0.02,,2013-03-12 18:13:00,
2013-03-12 14:23:00,62.0,60.0,29.86,North,351,0.0,0.0,92,0.00,,,0.02,,2013-03-12 18:23:00,
2013-03-12 14:33:00,62.0,59.0,29.86,NW,315,1.0,1.0,91,0.00,,,0.02,,2013-03-12 18:33:00,
2013-03-12 14:42:00,62.0,59.0,29.86,NW,315,1.0,1.0,91,0.00,,,0.02,,2013-03-12 18:42:00,
2013-03-12 14:53:00,63.0,60.0,29.85,North,360,0.0,0.0,89,0.01,,,0.03,,2013-03-12 18:53:00,
2013-03-12 15:03:00,63.0,59.0,29.85,North,360,0.0,0.0,88,0.01,,,0.03,,2013-03-12 19:03:00,
2013-03-12 15:13:00,63.0,59.0,29.85,North,360,0.0,0.0,88,0.01,,,0.03,,2013-03-12 19:13:00,
2013-03-12 15:23:00,62.0,58.0,29.85,North,360,0.0,1.0,86,0.01,,,0.03,,2013-03-12 19:23:00,
2013-03-12 15:33:00,63.0,58.0,29.86,North,360,0.0,1.0,85,0.01,,,0.03,,2013-03-12 19:33:00,
2013-03-12 15:43:00,63.0,58.0,29.86,North,360,0.0,1.0,85,0.01,,,0.03,,2013-03-12 19:43:00,
2013-03-12 15:53:00,64.0,59.0,29.86,WNW,292,0.0,0.0,84,0.00,,,0.03,,2013-03-12 19:53:00,
2013-03-12 16:02:00,64.0,59.0,29.85,SW,227,0.0,0.0,83,0.00,,,0.03,,2013-03-12 20:02:00,
2013-03-12 16:12:00,64.0,59.0,29.85,SW,227,0.0,0.0,83,0.00,,,0.03,,2013-03-12 20:12:00,
2013-03-12 16:23:00,64.0,58.0,29.85,South,180,0.0,0.0,80,0.00,,,0.03,,2013-03-12 20:23:00,
2013-03-12 16:32:00,64.0,58.0,29.85,ESE,109,0.0,0.0,80,0.00,,,0.03,,2013-03-12 20:32:00,
2013-03-12 16:42:00,64.0,58.0,29.85,ESE,109,0.0,0.0,80,0.00,,,0.03,,2013-03-12 20:42:00,
2013-03-12 16:53:00,65.0,58.0,29.86,NW,325,1.0,1.0,78,0.00,,,0.03,,2013-03-12 20:53:00,
2013-03-12 17:02:00,65.0,58.0,29.86,North,360,0.0,0.0,77,0.00,,,0.03,,2013-03-12 21:02:00,
2013-03-12 17:13:00,65.0,58.0,29.86,North,360,0.0,0.0,77,0.00,,,0.03,,2013-03-12 21:13:00,
2013-03-12 17:22:00,64.0,56.0,29.85,North,360,0.0,1.0,76,0.00,,,0.03,,2013-03-12 21:22:00,
2013-03-12 17:33:00,63.0,56.0,29.85,East,91,1.0,1.0,77,0.00,,,0.03,,2013-03-12 21:33:00,
2013-03-12 17:43:00,63.0,56.0,29.85,East,91,1.0,1.0,77,0.00,,,0.03,,2013-03-12 21:43:00,
2013-03-12 17:53:00,62.0,55.0,29.86,NW,307,0.0,1.0,77,0.00,,,0.03,,2013-03-12 21:53:00,
2013-03-12 18:02:00,62.0,55.0,29.86,ESE,110,0.0,1.0,78,0.00,,,0.03,,2013-03-12 22:02:00,
2013-03-12 18:12:00,62.0,55.0,29.86,ESE,110,0.0,1.0,78,0.00,,,0.03,,2013-03-12 22:12:00,
2013-03-12 18:22:00,61.0,54.0,29.85,North,360,0.0,0.0,77,0.00,,,0.03,,2013-03-12 22:22:00,
2013-03-12 18:33:00,61.0,54.0,29.86,North,360,0.0,0.0,78,0.00,,,0.03,,2013-03-12 22:33:00,
2013-03-12 18:43:00,61.0,54.0,29.86,North,360,0.0,0.0,78,0.00,,,0.03,,2013-03-12 22:43:00,
2013-03-12 18:53:00,60.0,53.0,29.86,North,360,0.0,0.0,78,0.00,,,0.03,,2013-03-12 22:53:00,
2013-03-12 19:02:00,60.0,53.0,29.86,ENE,73,0.0,0.0,79,0.00,,,0.03,,2013-03-12 23:02:00,
2013-03-12 19:12:00,60.0,53.0,29.86,ENE,73,0.0,0.0,79,0.00,,,0.03,,2013-03-12 23:12:00,
2013-03-12 19:23:00,59.0,53.0,29.87,North,360,0.0,0.0,80,0.00,,,0.03,,2013-03-12 23:23:00,
2013-03-12 19:34:00,59.0,53.0,29.87,North,360,0.0,0.0,81,0.00,,,0.03,,2013-03-12 23:34:00,
2013-03-12 19:43:00,59.0,53.0,29.87,North,360,0.0,0.0,81,0.00,,,0.03,,2013-03-12 23:43:00,
2013-03-12 19:52:00,58.0,52.0,29.88,North,360,0.0,0.0,81,0.00,,,0.03,,2013-03-12 23:52:00,
2013-03-12 20:03:00,58.0,53.0,29.88,North,360,0.0,0.0,82,0.00,,,0.03,,2013-03-13 00:03:00,
2013-03-12 20:12:00,58.0,53.0,29.88,North,360,0.0,0.0,82,0.00,,,0.03,,2013-03-13 00:12:00,
2013-03-12 20:23:00,58.0,52.0,29.89,North,360,0.0,0.0,81,0.00,,,0.03,,2013-03-13 00:23:00,
2013-03-12 20:33:00,57.0,52.0,29.89,North,360,0.0,0.0,82,0.00,,,0.03,,2013-03-13 00:33:00,
2013-03-12 20:42:00,57.0,52.0,29.89,North,360,0.0,0.0,82,0.00,,,0.03,,2013-03-13 00:42:00,
2013-03-12 20:53:00,57.0,52.0,29.89,North,360,0.0,0.0,82,0.00,,,0.03,,2013-03-13 00:53:00,
2013-03-12 21:03:00,57.0,52.0,29.90,North,360,0.0,0.0,83,0.00,,,0.03,,2013-03-13 01:03:00,
2013-03-12 21:12:00,57.0,52.0,29.90,North,360,0.0,0.0,83,0.00,,,0.03,,2013-03-13 01:12:00,
2013-03-12 21:22:00,57.0,52.0,29.91,North,360,0.0,0.0,83,0.00,,,0.03,,2013-03-13 01:22:00,
2013-03-12 21:32:00,57.0,52.0,29.91,North,360,0.0,0.0,83,0.00,,,0.03,,2013-03-13 01:32:00,
2013-03-12 21:42:00,57.0,52.0,29.91,North,360,0.0,0.0,83,0.00,,,0.03,,2013-03-13 01:42:00,
2013-03-12 21:53:00,57.0,52.0,29.92,North,360,0.0,0.0,84,0.00,,,0.03,,2013-03-13 01:53:00,
2013-03-12 22:02:00,57.0,52.0,29.92,North,360,0.0,0.0,84,0.00,,,0.03,,2013-03-13 02:02:00,
2013-03-12 22:12:00,57.0,52.0,29.92,North,360,0.0,0.0,84,0.00,,,0.03,,2013-03-13 02:12:00,
2013-03-12 22:22:00,57.0,52.0,29.92,North,360,0.0,0.0,84,0.00,,,0.03,,2013-03-13 02:22:00,
2013-03-12 22:32:00,57.0,52.0,29.92,North,360,0.0,0.0,84,0.00,,,0.03,,2013-03-13 02:32:00,
2013-03-12 22:43:00,57.0,52.0,29.92,North,360,0.0,0.0,84,0.00,,,0.03,,2013-03-13 02:43:00,
2013-03-12 22:53:00,57.0,52.0,29.93,North,360,0.0,0.0,84,0.00,,,0.03,,2013-03-13 02:53:00,
2013-03-12 23:02:00,57.0,52.0,29.94,North,360,0.0,0.0,84,0.00,,,0.03,,2013-03-13 03:02:00,
2013-03-12 23:13:00,57.0,52.0,29.94,North,360,0.0,0.0,84,0.00,,,0.03,,2013-03-13 03:13:00,
2013-03-12 23:22:00,57.0,53.0,29.94,North,360,0.0,0.0,85,0.00,,,0.03,,2013-03-13 03:22:00,
2013-03-12 23:32:00,57.0,53.0,29.95,North,360,0.0,0.0,85,0.00,,,0.03,,2013-03-13 03:32:00,
2013-03-12 23:42:00,57.0,53.0,29.95,North,360,0.0,0.0,85,0.00,,,0.03,,2013-03-13 03:42:00,
2013-03-12 23:53:00,57.0,53.0,29.95,North,360,0.0,0.0,85,0.00,,,0.03,,2013-03-13 03:53:00,